Lake Michigan Weather Center

Moon Phase Calendar



Lake Michigan Water Level
Online Cameras

 


      

Current Conditions in Ludington
4/19/2024 4:59:10 PM

47°F
Feels Like 42
Clouds
Humidity
48%
Pressure
30"
Wind
11.5 mph (WSW)
Dew Point
29°F
UV Index
2/10 (Low)
Visibility
6 mi

Hourly Forecast

Date & Time Fri, Apr 19
4:00 PM
Fri, Apr 19
5:00 PM
Fri, Apr 19
6:00 PM
Fri, Apr 19
7:00 PM
Fri, Apr 19
8:00 PM
Fri, Apr 19
9:00 PM
Fri, Apr 19
10:00 PM
Fri, Apr 19
11:00 PM
Sat, Apr 20
12:00 AM
Sat, Apr 20
1:00 AM
Sat, Apr 20
2:00 AM
Sat, Apr 20
3:00 AM
Sat, Apr 20
4:00 AM
Sat, Apr 20
5:00 AM
Sat, Apr 20
6:00 AM
Sat, Apr 20
7:00 AM
Sat, Apr 20
8:00 AM
Sat, Apr 20
9:00 AM
Sat, Apr 20
10:00 AM
Sat, Apr 20
11:00 AM
Sat, Apr 20
12:00 PM
Sat, Apr 20
1:00 PM
Sat, Apr 20
2:00 PM
Sat, Apr 20
3:00 PM
Sat, Apr 20
4:00 PM
Sat, Apr 20
5:00 PM
Sat, Apr 20
6:00 PM
Sat, Apr 20
7:00 PM
Sat, Apr 20
8:00 PM
Sat, Apr 20
9:00 PM
Sat, Apr 20
10:00 PM
Sat, Apr 20
11:00 PM
Sun, Apr 21
12:00 AM
Sun, Apr 21
1:00 AM
Sun, Apr 21
2:00 AM
Sun, Apr 21
3:00 AM
Sun, Apr 21
4:00 AM
Sun, Apr 21
5:00 AM
Sun, Apr 21
6:00 AM
Sun, Apr 21
7:00 AM
Sun, Apr 21
8:00 AM
Sun, Apr 21
9:00 AM
Sun, Apr 21
10:00 AM
Sun, Apr 21
11:00 AM
Sun, Apr 21
12:00 PM
Sun, Apr 21
1:00 PM
Sun, Apr 21
2:00 PM
Sun, Apr 21
3:00 PM
Condition
Clouds

Clouds

Clouds

Clouds

Clouds

Clouds

Clouds

Clouds

Clouds

Clouds

Clouds

Clouds

Clouds

Clear

Clouds

Clouds

Clouds

Clouds

Clear

Clear

Clouds

Clouds

Clouds

Clouds

Clouds

Clouds

Clouds

Clouds

Clouds

Clouds

Clouds

Clouds

Clouds

Clouds

Clouds

Clouds

Clouds

Clear

Clear

Clear

Clear

Clear

Clear

Clear

Clear

Clear

Clear

Clear
Temperature 46°F47°F46°F45°F44°F43°F41°F40°F39°F39°F38°F38°F38°F37°F37°F36°F37°F36°F36°F37°F38°F39°F40°F40°F40°F41°F42°F42°F42°F42°F42°F42°F41°F41°F40°F40°F40°F39°F39°F39°F39°F39°F39°F40°F41°F42°F43°F44°F
Feels Like 40°F42°F41°F39°F36°F34°F31°F30°F29°F28°F28°F27°F26°F26°F25°F25°F25°F24°F25°F26°F28°F30°F32°F35°F34°F36°F37°F37°F36°F35°F35°F34°F33°F32°F32°F32°F31°F30°F30°F30°F29°F30°F30°F31°F33°F35°F37°F38°F
Cloudiness 67%75%73%74%77%95%93%73%56%46%40%11%11%7%18%35%46%11%8%8%20%23%21%14%51%63%58%50%60%97%96%98%96%93%96%20%12%8%6%5%4%0%0%0%0%0%0%4%
Visibility 6 mi6 mi6 mi6 mi6 mi6 mi6 mi6 mi6 mi6 mi6 mi6 mi6 mi6 mi6 mi6 mi6 mi6 mi6 mi6 mi6 mi6 mi6 mi6 mi6 mi6 mi6 mi6 mi6 mi6 mi6 mi6 mi6 mi6 mi6 mi6 mi6 mi6 mi6 mi6 mi6 mi6 mi6 mi6 mi6 mi6 mi6 mi6 mi
Precipitation 0%0%0%0%0%0%0%0%0%0%0%0%0%0%0%0%0%0%0%0%0%0%0%0%0%0%0%0%0%0%0%0%0%0%0%0%0%0%0%0%0%0%0%0%0%0%0%0%
Humidity 51%48%52%54%57%59%61%60%61%62%63%64%64%63%64%64%65%66%67%65%62%59%57%58%61%62%61%63%68%70%69%70%72%73%74%76%75%73%73%73%73%72%71%71%71%69%68%67%
Dew Point 29°F29°F30°F30°F30°F30°F28°F27°F27°F27°F27°F27°F26°F26°F26°F25°F26°F26°F26°F26°F26°F26°F26°F26°F28°F29°F30°F31°F32°F33°F33°F33°F33°F33°F33°F33°F32°F31°F31°F31°F31°F31°F31°F31°F32°F33°F34°F34°F
Pressure 30"30"30"30"30"30.03"30.06"30.06"30.06"30.06"30.06"30.06"30.06"30.06"30.06"30.09"30.09"30.12"30.12"30.15"30.15"30.15"30.15"30.15"30.15"30.12"30.12"30.12"30.12"30.12"30.12"30.09"30.09"30.09"30.09"30.09"30.09"30.09"30.09"30.09"30.09"30.12"30.12"30.12"30.09"30.09"30.09"30.09"
Wind Speed 15.1 mph12.1 mph10.1 mph15.8 mph19.6 mph19.6 mph21.4 mph23 mph23 mph21.6 mph22.2 mph23 mph23.4 mph25.4 mph25.4 mph25.6 mph24.9 mph25 mph22.9 mph21.3 mph19.6 mph16.7 mph12.1 mph8.4 mph8.8 mph7.8 mph7.2 mph8.3 mph9.9 mph12.6 mph13.8 mph15 mph18.3 mph17 mph16 mph15.1 mph15.2 mph17 mph17.5 mph17.6 mph17.8 mph17.4 mph17 mph17.1 mph16.1 mph14.8 mph12.4 mph11.1 mph
Wind
Direction
242°
WSW
240°
WSW
265°
W
275°
W
292°
WNW
282°
WNW
284°
WNW
276°
W
277°
W
277°
W
275°
W
275°
W
275°
W
278°
W
281°
W
286°
WNW
288°
WNW
289°
WNW
295°
WNW
296°
WNW
298°
WNW
303°
WNW
296°
WNW
265°
W
234°
SW
237°
WSW
247°
WSW
244°
WSW
250°
WSW
269°
W
272°
W
262°
W
265°
W
278°
W
286°
WNW
284°
WNW
283°
WNW
281°
W
283°
WNW
282°
WNW
285°
WNW
285°
WNW
280°
W
269°
W
259°
W
253°
WSW
255°
WSW
242°
WSW

Daily Forecast

Date High Low Precip. Humidity
Today
Apr 19

Clouds
47 °F
39 °F
80%
57%
Saturday
Apr 20

Clouds
42 °F
36 °F
0%
59%
Sunday
Apr 21

Clear
45 °F
39 °F
0%
69%
Monday
Apr 22

Rain
46 °F
39 °F
20%
76%
Tuesday
Apr 23

Rain
46 °F
36 °F
100%
90%
Wednesday
Apr 24

Clouds
35 °F
30 °F
0%
53%
Thursday
Apr 25

Clear
41 °F
36 °F
0%
56%
Friday
Apr 26

Rain
48 °F
38 °F
20%
49%
Saturday
Apr 27

Rain
45 °F
42 °F
100%
87%
Sunday
Apr 28

Rain
59 °F
45 °F
100%
87%
Monday
Apr 29

Rain
52 °F
47 °F
100%
92%
Tuesday
Apr 30

Clouds
47 °F
44 °F
0%
88%
Wednesday
May 1

Rain
46 °F
43 °F
100%
83%
Thursday
May 2

Rain
50 °F
46 °F
100%
89%
Friday
May 3

Clouds
48 °F
44 °F
0%
73%
Saturday
May 4

Clouds
57 °F
46 °F
0%
59%

Temperature 8-14 Day Outlook



Precipitation 8-14 Day Outlook




Quick Links
Lake Michigan News
Lake Michigan Photos
Lake Michigan Videos




About Us
Contact Us
Site Map
Search Site
Advertise With Us
   
Michigan.USLakes.info
THE LAKE MICHIGAN WEBSITE

Copyright 2024, Lakes Online
Privacy    |    Legal